Regional Weather Roundup
Issued by NWS Kansas City/Pleasant Hill, MO

Home | Current Version | Previous Version | Graphics & Text | Print | Product List | Glossary Off
Versions: 1 2 3 4 5 6 7 8 9 10 11 12 13 14 15 16 17 18 19 20 21 22 23 24 25 26 27

000
ASUS43 KEAX 050410
RWREAX

WEATHER ROUNDUP FOR EASTERN KANSAS AND NORTHWEST MISSOURI
NATIONAL WEATHER SERVICE KANSAS CITY/PLEASANT HILL MO
1000 PM CST SUN DEC 04 2016

KSZ040-057-103>105-MOZ028-029-037-043-050500-
...KANSAS CITY METROPOLITAN AREA...

CITY           SKY/WX    TMP DP  RH WIND       PRES   REMARKS
K.C. INTL      CLEAR     29  28  96 S7        29.99S WCI  22
K.C. DOWNTOWN  CLEAR     36  34  92 CALM      30.00F
LEES SUMMIT    CLEAR     35  34  96 SW7       30.00F WCI  29
OLATHE - IXD   CLEAR     32  32 100 S3        30.00F FOG
OLATHE - OJC   CLEAR     33  32  96 SW3       30.00S FOG
LAWRENCE       CLEAR     27  27 100 CALM      30.00S FOG

$$

MOZ001>008-011>017-020>025-030>033-038>040-044>046-053-054-050500-
...NORTHERN AND CENTRAL MISSOURI...

CITY           SKY/WX    TMP DP  RH WIND       PRES   REMARKS
ST. JOSEPH     CLEAR     31  30  96 S3        29.99S
MOSBY          CLEAR     32  32 100 CALM      30.00F FOG
WARRENSBURG    CLEAR     34  32  93 S3        30.01S
WHITEMAN AFB   CLEAR     32  32 100 S5        30.00S WCI  27
CLINTON        CLEAR     32  30  93 SW3       30.03R
SEDALIA        CLEAR     37  34  89 SW6       30.02S WCI  32
WARSAW         NOT AVBL
CHILLICOTHE      N/A     29  27  92 CALM      30.01R
KIRKSVILLE     MOCLDY    34  33  96 W5        29.99R WCI  30

$$

MOZ041-047>049-056>058-063>065-088>090-097-050500-
...EASTERN AND SOUTHERN MISSOURI...

CITY           SKY/WX    TMP DP  RH WIND       PRES   REMARKS
ST. LOUIS INTL CLOUDY    40  33  76 NW5       30.04S
SPIRIT OF STL  PTCLDY    38  34  85 CALM      30.03F
COLUMBIA       CLEAR     36  34  92 W7        30.01S WCI  30
JEFFERSON CITY FOG       30  30 100 CALM      30.03S VSB 1/4
ROLLA          CLEAR     33  32  96 CALM      29.99F
OSAGE BEACH    CLEAR     28  28 100 CALM      30.02S FOG
SPRINGFIELD    CLOUDY    29  29 100 S3        30.01S
BRANSON        PTCLDY    34  34 100 CALM      30.04R
JOPLIN         CLOUDY    31  30  96 S6        30.03R WCI  25
WEST PLAINS    FOG       33  31  92 CALM      30.03S VSB 3/4

$$

IAZ060-094-KSZ022-034>040-054-083-096-NEZ052-066-093-050500-
...KANSAS...SOUTHEAST NEBRASKA AND IOWA...

CITY           SKY/WX    TMP DP  RH WIND       PRES   REMARKS
TOPEKA         FOG       28  25  88 CALM      29.99F VSB 1/2
MANHATTAN      CLEAR     30  28  92 CALM      29.96F FOG
EMPORIA        CLEAR     32  31  96 S7        29.99S WCI  26
CHANUTE        CLEAR     31  29  92 SE8       30.01F FOG     WCI  23
WICHITA        CLEAR     35  33  92 S3        29.99S
OMAHA          CLEAR     30  26  85 SE9       29.90F WCI  22
LINCOLN        CLEAR     33  30  88 SE3       29.90F
FALLS CITY     CLEAR     34  32  92 S6        29.95S WCI  29
LAMONI         CLEAR     32  31  96 S8        29.95R FOG     WCI  25
DES MOINES     CLEAR     34  32  92 SW6       29.93R WCI  29

$$





USA.gov is the U.S. government's official web portal to all federal, state and local government web resources and services.